SOYUZ-MS 05

Last updated on Thu Dec 14 2017 00:15:06 GMT+0000 (Coordinated Universal Time)

1 42898U 17043A 17346.61538922 .00001476 00000-0 29526-4 0 9999 2 42898 51.6423 228.8276 0003008 224.0570 222.5963 15.54128846 21309
UTC large
Height (km)
Speed (km/s)
/
Latitude / Longitude
Inclination (degrees)
Orbital Period (minutes)
Azimuth
Elevation
Range (km)
Doppler Factor

Next 0 passes for location: London (51.5072 / 0.1276)

Sorry there are no passes over London.